Location: Newark
(44.1667°N, 8.2500°E)
Time: 03:25:00
(UTC+00:00)

Vanguard 2 - Pass Details

Date: 07 December 2019
Orbit: 553 x 2938 km, 32.9° (Epoch: 23 January)

Event Time Altitude Azimuth Distance (km) Brightness Sun altitude
Exits shadow 05:04:06 15° 257° (WSW) 5,362 11.3 -18.0°
Maximum altitude 05:18:57 53° 191° (S) 3,035 10.5 -15.4°
Drops below altitude 10° 05:31:29 10° 119° (ESE) 4,411 12.8 -13.2°
Sets 05:34:31 0° 115° (ESE) 5,124 13.8 -12.7°
